Weather History for KPVD - April, 2013

Change the Weather History Date:

Friday, April 5, 2013

  Actual Average Record
Temperature  
Mean Temperature 50 °F 46 °F  
Max Temperature 62 °F 55 °F 82 °F (1921)
Min Temperature 38 °F 36 °F 20 °F (1995)
Degree Days  
Heating Degree Days 15 20  
Month to date heating degree days 107 102  
Since 1 July heating degree days 4740 4973  
Cooling Degree Days 0 0  
Month to date cooling degree days 0 0  
Year to date cooling degree days 0 0  
Moisture  
Dew Point 27 °F    
Average Humidity 48    
Maximum Humidity 76    
Minimum Humidity 19    
Precipitation  
Precipitation 0.00 in 0.16 in 1.92 in (1957)
Month to date precipitation 0.08 0.81  
Year to date precipitation 9.98 12.97  
Snow  
Snow 0.00 in 0.00 in 0.40 in (1957)
Month to date snowfall 0.0 0.2  
Since 1 July snowfall 46.3 33.4  
Snow Depth 0.00 in    
Sea Level Pressure  
Sea Level Pressure 29.86 in    
Wind  
Wind Speed 9 mph (WSW)    
Max Wind Speed 23 mph    
Max Gust Speed 32 mph    
Visibility 10 miles    
Events      
T = Trace of Precipitation, MM = Missing Value Source: NWS Daily Summary

Daily Weather History Graph

Daily Weather History Graph

Search for Another Location

Airport or City:

Trip Planner

Search our weather history database for the weather conditions in past years. The results will help you decide how hot, cold, wet, or windy it might be!

Date:

Astronomy

Apr. 05, 2013 Rise Set
Actual Time 6:21 AM EDT 7:15 PM EDT
Civil Twilight 5:53 AM EDT 7:44 PM EDT
Nautical Twilight 5:19 AM EDT 8:17 PM EDT
Astronomical Twilight 4:44 AM EDT 8:52 PM EDT
Moon 3:30 AM EDT (4/5) 2:32 PM EDT (4/5)
Length of Visible Light 13h 50m
Length of Day
12h 54m
Waning Crescent, 24% of the Moon is Illuminated
Apr 5
Waning Crescent
Apr 10
New
Apr 18
First Quarter
Apr 25
Full
May 2
Last Quarter

Hourly Weather History & Observations

Time (EDT) Temp. Windchill Dew Point Humidity Pressure Visibility Wind Dir Wind Speed Gust Speed Precip Events Conditions
12:51 AM 37.9 °F 30.5 °F 30.9 °F 76% 30.08 in 10.0 mi SSW 11.5 mph - N/A   Clear
1:51 AM 39.0 °F 34.0 °F 30.9 °F 73% 30.06 in 10.0 mi SSW 6.9 mph - N/A   Clear
2:51 AM 39.0 °F 33.4 °F 28.9 °F 67% 30.03 in 10.0 mi SSW 8.1 mph - N/A   Clear
3:51 AM 39.0 °F 33.4 °F 28.9 °F 67% 30.01 in 10.0 mi SSW 8.1 mph - N/A   Clear
4:51 AM 39.9 °F 34.5 °F 28.9 °F 65% 30.00 in 10.0 mi SSW 8.1 mph - N/A   Clear
5:51 AM 39.9 °F 35.8 °F 30.0 °F 68% 29.96 in 10.0 mi SSW 5.8 mph - N/A   Overcast
6:51 AM 41.0 °F 37.1 °F 30.9 °F 67% 29.97 in 10.0 mi SSW 5.8 mph - N/A   Overcast
7:51 AM 41.0 °F 35.8 °F 32.0 °F 70% 29.96 in 10.0 mi South 8.1 mph - N/A   Overcast
8:51 AM 42.1 °F 38.4 °F 33.1 °F 70% 29.93 in 10.0 mi South 5.8 mph - N/A   Overcast
9:51 AM 43.0 °F 41.3 °F 33.1 °F 68% 29.91 in 10.0 mi SSW 3.5 mph - N/A   Mostly Cloudy
10:51 AM 45.0 °F 42.6 °F 33.1 °F 63% 29.87 in 10.0 mi South 4.6 mph - N/A   Overcast
11:51 AM 46.9 °F - 34.0 °F 61% 29.84 in 10.0 mi WSW 4.6 mph - N/A   Overcast
12:08 PM 48.2 °F - 35.6 °F 62% 29.82 in 10.0 mi WSW 6.9 mph - N/A   Mostly Cloudy
12:51 PM 50.0 °F - 35.1 °F 57% 29.78 in 10.0 mi Variable 5.8 mph - N/A   Mostly Cloudy
1:51 PM 55.9 °F - 30.9 °F 39% 29.73 in 10.0 mi NNW 8.1 mph - N/A   Scattered Clouds
2:51 PM 57.0 °F - 25.0 °F 29% 29.70 in 10.0 mi West 4.6 mph - N/A   Scattered Clouds
3:51 PM 60.1 °F - 19.9 °F 21% 29.65 in 10.0 mi Variable 6.9 mph 16.1 mph N/A   Scattered Clouds
4:51 PM 61.0 °F - 18.0 °F 19% 29.65 in 10.0 mi Variable 6.9 mph - N/A   Scattered Clouds
5:51 PM 60.1 °F - 19.0 °F 20% 29.66 in 10.0 mi West 20.7 mph 26.5 mph N/A   Scattered Clouds
6:51 PM 55.9 °F - 17.1 °F 22% 29.71 in 10.0 mi NW 15.0 mph 23.0 mph N/A   Scattered Clouds
7:51 PM 53.1 °F - 12.9 °F 20% 29.74 in 10.0 mi WNW 11.5 mph 19.6 mph N/A   Partly Cloudy
8:51 PM 50.0 °F - 19.9 °F 31% 29.79 in 10.0 mi WNW 12.7 mph 20.7 mph N/A   Partly Cloudy
9:51 PM 46.9 °F - 21.0 °F 36% 29.83 in 10.0 mi WNW 20.7 mph 29.9 mph N/A   Clear
10:51 PM 45.0 °F 37.9 °F 21.9 °F 40% 29.85 in 10.0 mi NW 16.1 mph 27.6 mph N/A   Clear
11:51 PM 43.0 °F 36.4 °F 23.0 °F 45% 29.88 in 10.0 mi NW 12.7 mph - N/A   Clear